Wind_Speed
51 50 49 48 48 47 47 46 45 45 45 45 44 44 43 43 43 43 42 43 43 44 44 44 44 44 45 45 45 45 45 45 46 46 46 46 46 46
51 50 49 49 49 48 48 47 47 46 45 45 45 44 44 44 44 44 44 44 44 44 44 45 45 45 46 46 46 47 47 46 46 47 47 47 48 47
52 52 51 50 50 50 49 48 48 47 46 45 45 45 46 45 45 45 46 45 45 45 45 46 47 48 48 48 47 47 48 47 47 48 49 49 48 48
53 53 52 51 50 50 49 49 49 48 47 46 46 46 46 46 46 46 46 45 45 46 47 47 48 49 49 49 48 48 48 49 49 49 49 49 49 48
53 53 53 52 51 50 50 50 50 49 48 48 46 46 46 46 46 46 46 46 46 47 47 48 49 49 49 49 49 49 49 50 50 49 49 49 48 47
53 53 53 53 52 51 50 50 49 49 49 48 48 47 46 46 46 46 46 46 47 47 47 48 48 49 50 50 50 50 49 49 48 48 48 48 48 47
53 53 53 53 53 51 50 50 50 50 49 48 48 48 48 48 47 47 47 47 47 47 47 48 49 49 50 50 49 49 49 49 48 47 47 47 47 47
52 52 52 52 51 52 51 50 49 48 48 48 48 49 49 49 48 48 48 48 48 48 48 48 48 48 48 48 48 48 48 48 47 46 46 46 47 47
50 50 49 49 49 49 49 49 48 48 47 47 47 48 48 48 48 48 49 48 48 48 48 47 47 47 48 47 46 46 46 47 47 47 47 48 48 48
45 47 47 46 46 46 46 47 48 48 48 48 47 48 48 49 49 49 49 48 48 48 48 47 47 47 47 46 45 45 45 45 46 47 48 48 48 49
43 44 45 45 45 45 45 46 46 47 47 47 47 47 47 48 49 49 49 49 48 48 48 48 47 47 46 46 46 46 46 45 46 46 47 47 48 48
42 42 43 43 43 44 44 44 44 45 45 46 46 46 46 47 47 47 47 48 48 48 48 48 47 47 46 45 44 45 45 45 45 45 46 47 47 47
40 41 41 42 42 43 43 43 43 43 44 44 44 45 45 46 46 46 47 47 47 47 47 47 46 46 46 45 45 44 44 44 45 45 45 46 47 48
38 39 39 40 41 41 41 42 41 41 42 43 43 43 43 43 44 44 45 46 46 46 45 45 45 45 45 45 44 45 45 45 45 45 46 47 47 48
37 37 37 38 39 39 40 40 40 40 41 41 41 42 42 42 42 42 43 44 45 45 45 44 44 44 44 44 44 44 45 45 45 46 47 47 47 48
37 37 37 37 38 38 38 38 39 39 39 40 40 41 41 42 42 43 43 44 44 43 43 43 43 43 43 44 44 45 45 46 46 46 46 47 47 48
35 36 36 36 36 37 38 38 38 39 39 39 39 40 41 41 42 43 43 43 42 42 42 42 42 43 43 44 44 45 45 46 46 47 47 47 48 48
34 34 35 35 36 36 37 38 38 39 39 40 40 40 41 41 42 41 41 41 41 41 41 41 42 42 43 43 44 45 45 45 46 47 47 47 47 48
33 34 35 36 36 36 36 36 37 38 38 38 39 39 40 40 40 40 40 40 40 41 41 41 41 42 43 43 43 44 44 45 46 46 47 47 48 48
32 33 34 35 35 36 36 36 36 37 38 38 38 38 38 38 38 39 40 40 40 40 41 41 42 42 43 43 43 43 45 46 46 47 47 47 46 46
32 33 33 34 35 35 36 37 37 37 37 37 37 37 38 38 39 39 39 40 40 40 41 41 42 43 43 44 44 45 46 47 47 46 46 45 44 43
32 32 33 34 34 35 36 37 37 36 36 36 36 37 38 38 39 39 39 39 40 40 41 41 42 43 43 44 45 45 45 45 45 45 44 43 42 40
32 33 34 34 34 35 35 35 35 35 35 35 36 36 37 38 38 39 39 40 40 40 41 41 42 42 43 43 43 43 43 43 42 42 42 42 40 39
Wind_Direction
249 251 252 252 254 255 256 257 258 258 258 259 260 261 262 263 264 265 267 269 270 271 272 273 273 274 276 277 277 278 277 277 276 276 277 276 276 276
248 249 251 253 254 255 256 257 258 259 259 259 259 261 262 263 265 266 268 269 271 272 272 273 273 274 276 277 277 276 276 277 276 276 276 276 276 276
249 250 251 252 253 254 255 257 258 259 259 259 259 261 262 264 266 267 268 269 270 271 272 273 274 275 276 276 276 276 276 277 276 277 276 276 274 275
249 250 251 252 253 254 255 257 259 260 260 260 260 262 262 263 265 266 267 268 270 272 273 273 275 276 276 275 276 276 276 276 276 276 276 274 274 275
249 250 251 252 253 254 256 258 259 259 260 261 261 262 263 264 265 265 266 268 270 272 273 274 275 276 275 276 276 276 276 277 277 276 275 274 274 274
249 250 251 252 253 254 255 257 257 259 260 260 261 263 264 264 265 265 266 267 269 271 274 276 277 276 276 276 276 276 276 277 277 276 275 275 275 275
249 250 251 252 253 254 255 256 257 259 260 261 262 262 264 265 265 265 266 268 270 272 274 276 277 277 276 276 277 277 276 276 276 275 274 274 274 274
248 250 251 251 253 253 254 255 256 258 260 261 262 262 263 264 265 266 267 268 270 272 275 276 276 277 277 277 277 276 275 274 274 274 274 273 274 274
248 249 250 251 252 253 254 255 257 258 259 261 262 262 264 264 266 267 268 269 271 273 274 276 276 276 276 275 276 276 275 274 273 273 274 274 274 274
248 248 249 250 252 252 254 256 257 257 259 260 262 263 264 265 266 268 269 269 271 273 274 275 276 276 275 274 274 275 276 275 275 275 274 274 274 274
248 249 250 252 252 252 254 255 257 258 258 260 262 264 265 266 267 268 269 269 270 272 274 275 275 274 274 274 274 275 275 275 276 275 275 275 275 275
249 250 251 252 252 253 254 255 256 257 259 261 262 263 265 267 268 269 270 270 271 272 273 274 274 273 272 272 273 274 274 275 275 275 276 276 276 276
249 250 250 251 252 253 255 255 256 257 258 261 262 264 266 267 268 270 271 272 272 273 273 273 272 271 271 272 272 273 274 274 275 276 277 277 278 278
249 250 251 251 252 253 255 256 257 259 260 261 263 265 266 268 270 271 272 272 273 273 273 272 271 271 271 272 272 273 274 275 275 276 277 278 279 280
249 250 251 252 253 254 256 257 257 258 260 262 263 265 266 268 270 271 272 273 273 272 272 272 271 271 271 273 273 274 275 276 276 277 278 279 279 280
250 251 252 254 254 254 255 256 257 258 261 263 264 266 267 268 270 271 272 273 273 273 273 272 273 273 273 273 274 275 276 278 278 278 279 280 280 281
252 252 252 253 254 254 255 256 258 260 261 263 265 267 268 269 270 271 272 273 273 273 272 273 274 275 275 275 276 276 278 279 279 280 280 281 281 281
253 253 253 254 255 256 257 259 260 261 263 264 266 268 268 269 270 270 271 271 272 272 273 273 274 276 277 277 278 278 278 279 280 281 282 282 282 282
254 255 256 256 257 258 259 260 260 262 264 265 267 268 269 269 269 270 270 272 272 274 275 275 276 277 278 278 279 279 280 280 281 282 284 284 284 283
255 255 256 257 257 258 259 260 261 263 265 266 266 267 268 268 269 270 271 272 273 274 275 276 277 278 279 279 279 280 281 282 283 284 285 285 285 284
257 257 258 259 259 260 260 261 262 263 265 266 266 267 268 269 271 272 272 272 273 275 276 277 278 279 280 280 281 281 283 284 284 285 285 285 285 284
258 258 260 261 261 262 262 262 263 263 263 264 266 268 269 270 272 273 273 274 275 276 277 278 279 279 280 281 282 283 283 284 284 284 285 285 285 284
260 261 261 262 263 263 263 263 263 263 264 266 268 270 271 272 273 274 275 276 277 277 278 279 280 281 282 283 284 283 283 284 284 284 286 286 286 284
Height
5676 5679 5683 5686 5689 5692 5694 5697 5700 5703 5706 5707 5709 5710 5711 5712 5714 5715 5716 5716 5717 5717 5717 5717 5716 5716 5715 5714 5713 5713 5712 5711 5710 5709 5708 5707 5706 5704
5662 5666 5670 5673 5676 5679 5682 5685 5688 5691 5694 5696 5697 5698 5699 5701 5702 5703 5704 5705 5705 5705 5705 5705 5705 5704 5704 5703 5702 5701 5699 5698 5697 5696 5695 5694 5693 5692
5649 5653 5657 5660 5663 5666 5670 5672 5675 5678 5681 5684 5685 5686 5687 5688 5690 5691 5692 5692 5693 5693 5693 5693 5692 5692 5691 5690 5689 5688 5687 5685 5684 5683 5682 5681 5680 5679
5635 5640 5644 5647 5650 5654 5657 5660 5662 5665 5668 5671 5672 5673 5675 5676 5677 5678 5679 5680 5681 5681 5680 5680 5679 5678 5677 5676 5675 5674 5673 5672 5671 5670 5669 5667 5666 5665
5622 5626 5630 5634 5638 5641 5644 5647 5649 5652 5655 5657 5659 5661 5662 5663 5664 5666 5666 5667 5668 5668 5667 5667 5666 5665 5664 5663 5661 5660 5659 5658 5657 5656 5655 5654 5653 5652
5608 5612 5617 5621 5624 5628 5631 5634 5636 5639 5641 5643 5646 5648 5649 5650 5651 5653 5654 5654 5655 5654 5654 5653 5652 5651 5650 5649 5648 5646 5645 5644 5643 5642 5641 5640 5640 5639
5595 5599 5603 5607 5610 5614 5617 5620 5622 5625 5627 5629 5632 5634 5635 5636 5638 5639 5640 5641 5641 5641 5640 5639 5638 5637 5636 5634 5633 5632 5631 5630 5629 5628 5627 5627 5626 5626
5581 5585 5589 5593 5596 5600 5603 5606 5609 5611 5614 5616 5618 5620 5622 5623 5624 5625 5626 5628 5629 5628 5627 5626 5624 5623 5621 5620 5619 5617 5616 5615 5615 5614 5614 5613 5613 5612
5568 5572 5576 5579 5583 5586 5589 5592 5595 5597 5600 5603 5605 5606 5608 5610 5611 5612 5612 5613 5614 5614 5613 5612 5611 5609 5608 5606 5605 5603 5602 5601 5601 5600 5600 5600 5599 5598
5555 5559 5563 5566 5569 5573 5576 5579 5581 5584 5587 5589 5592 5593 5594 5595 5596 5597 5598 5599 5599 5599 5598 5598 5597 5596 5594 5593 5591 5590 5589 5588 5587 5586 5586 5585 5585 5584
5544 5547 5551 5554 5557 5561 5563 5566 5569 5571 5572 5575 5577 5579 5580 5581 5582 5583 5584 5584 5585 5585 5584 5584 5583 5582 5581 5580 5578 5577 5576 5575 5574 5573 5572 5571 5571 5570
5533 5536 5539 5542 5545 5547 5550 5553 5556 5558 5560 5562 5564 5565 5566 5567 5568 5569 5569 5570 5570 5571 5570 5569 5568 5567 5568 5568 5566 5564 5563 5562 5561 5560 5559 5558 5557 5556
5521 5524 5527 5530 5533 5535 5538 5541 5543 5546 5548 5549 5551 5552 5553 5554 5555 5555 5555 5555 5556 5556 5556 5555 5554 5553 5553 5554 5554 5552 5550 5549 5548 5547 5546 5545 5544 5542
5511 5513 5516 5518 5521 5524 5526 5529 5531 5533 5535 5537 5538 5540 5541 5541 5542 5542 5542 5542 5542 5542 5541 5541 5540 5540 5540 5540 5540 5539 5538 5536 5535 5534 5533 5532 5530 5529
5500 5503 5505 5508 5510 5512 5515 5517 5519 5521 5523 5525 5526 5527 5528 5529 5529 5529 5529 5528 5528 5528 5528 5527 5527 5527 5526 5527 5527 5526 5525 5524 5522 5521 5519 5518 5517 5515
5490 5492 5495 5497 5499 5502 5504 5506 5507 5509 5511 5513 5514 5515 5516 5516 5517 5517 5516 5516 5516 5516 5515 5514 5514 5514 5514 5513 5513 5512 5511 5510 5509 5507 5506 5504 5502 5500
5480 5482 5484 5487 5489 5491 5493 5495 5496 5498 5499 5501 5502 5503 5503 5504 5504 5504 5504 5504 5504 5504 5503 5502 5501 5501 5501 5500 5500 5499 5498 5496 5495 5493 5492 5490 5488 5486
5470 5472 5474 5476 5478 5480 5482 5484 5485 5486 5488 5489 5490 5491 5491 5492 5492 5492 5492 5492 5492 5491 5491 5490 5489 5489 5488 5487 5487 5486 5484 5483 5481 5479 5477 5476 5474 5472
5460 5462 5464 5466 5468 5469 5471 5473 5474 5475 5476 5477 5478 5479 5479 5479 5480 5480 5480 5480 5480 5479 5479 5478 5477 5476 5476 5475 5474 5472 5471 5469 5467 5466 5463 5461 5459 5457
5451 5452 5454 5456 5457 5459 5460 5462 5463 5464 5465 5465 5466 5467 5467 5468 5468 5468 5468 5468 5467 5467 5467 5466 5465 5464 5463 5462 5461 5460 5457 5455 5454 5452 5450 5447 5445 5442
5441 5442 5444 5445 5447 5448 5449 5450 5452 5453 5453 5454 5455 5455 5456 5456 5456 5456 5456 5456 5455 5455 5454 5454 5452 5451 5449 5448 5448 5447 5444 5441 5439 5437 5436 5434 5432 5429
5431 5432 5433 5435 5436 5437 5438 5439 5440 5441 5442 5443 5444 5444 5444 5444 5444 5444 5444 5443 5443 5442 5441 5441 5439 5438 5436 5435 5434 5433 5431 5428 5425 5423 5421 5420 5418 5416
5421 5422 5423 5424 5425 5426 5427 5428 5429 5430 5431 5432 5432 5433 5433 5433 5432 5432 5432 5431 5430 5430 5428 5428 5426 5425 5423 5422 5421 5419 5417 5415 5413 5411 5409 5406 5405 5403